Valladolid(Mil/C, Spain

10:54 PM CET on January 17, 2017 (GMT +0100)
Villanubla

Weather History for LEVD - November, 2012

Change the Weather History Date:

Sunday, November 4, 2012

  Actual Average Record
Temperature  
Mean Temperature 46 °F -  
Max Temperature 51 °F - - ()
Min Temperature 37 °F - - ()
Degree Days  
Heating Degree Days 18    
Moisture  
Dew Point 46 °F    
Average Humidity 94    
Maximum Humidity 100    
Minimum Humidity 81    
Precipitation  
Precipitation 0.00 in - - ()
Sea Level Pressure  
Sea Level Pressure 29.75 in    
Wind  
Wind Speed 8 mph ()    
Max Wind Speed 20 mph    
Max Gust Speed -    
Visibility 5.8 miles    
Events Rain    
T = Trace of Precipitation, MM = Missing Value Source: Averaged Metar Reports

Daily Weather History Graph

Daily Weather History Graph

Search for Another Location

Airport or City:

Trip Planner

Search our weather history database for the weather conditions in past years. The results will help you decide how hot, cold, wet, or windy it might be!

Date:

Astronomy

Nov. 04, 2012 Rise Set
Actual Time 7:55 AM CET 6:09 PM CET
Civil Twilight 7:26 AM CET 6:38 PM CET
Nautical Twilight 6:53 AM CET 7:11 PM CET
Astronomical Twilight 6:20 AM CET 7:44 PM CET
Moon 10:33 PM CET (11/4) 12:31 PM CET (11/4)
Length of Visible Light 11h 12m
Length of Day
10h 14m
Waning Gibbous, 74% of the Moon is Illuminated
Nov 4
Waning Gibbous
Nov 7
Last Quarter
Nov 13
New
Nov 20
First Quarter
Nov 28
Full

Hourly Weather History & Observations

Time (CET) Temp. Windchill Dew Point Humidity Pressure Visibility Wind Dir Wind Speed Gust Speed Precip Events Conditions
6:00 AM 48.2 °F - 48.2 °F 100% 29.71 in 6.2 mi SW 4.6 mph - N/A Rain Rain
6:30 AM 48.2 °F - 48.2 °F 100% 29.71 in 6.2 mi SW 4.6 mph - N/A Rain Rain
7:00 AM 48.2 °F - 48.2 °F 100% 29.71 in 6.2 mi SW 3.5 mph - N/A Rain Rain
7:30 AM 48.2 °F - 48.2 °F 100% 29.71 in 6.2 mi SW 4.6 mph - N/A   Scattered Clouds
8:00 AM 48.2 °F - 48.2 °F 100% 29.71 in 6.2 mi SSW 4.6 mph - N/A Rain Rain
8:30 AM 48.2 °F - 48.2 °F 100% 29.71 in 6.2 mi SSW 4.6 mph - N/A   Scattered Clouds
9:00 AM 48.2 °F - 48.2 °F 100% 29.74 in 6.2 mi SW 5.8 mph - N/A Rain Rain
9:30 AM 48.2 °F - 48.2 °F 100% 29.77 in 6.2 mi SW 6.9 mph - N/A Rain Rain
10:00 AM 48.2 °F - 48.2 °F 100% 29.74 in 6.2 mi South 9.2 mph - N/A Rain Rain
10:30 AM 48.2 °F - 48.2 °F 100% 29.74 in 6.2 mi South 8.1 mph - N/A Rain Rain
11:00 AM 48.2 °F - 48.2 °F 100% 29.74 in 6.2 mi South 10.4 mph - N/A Rain Rain
11:30 AM 50.0 °F - 50.0 °F 100% 29.71 in 6.2 mi South 12.7 mph - N/A Rain Rain
12:00 PM 50.0 °F - 50.0 °F 100% 29.71 in 6.2 mi South 12.7 mph - N/A   Mostly Cloudy
12:30 PM 50.0 °F - 50.0 °F 100% 29.71 in 6.2 mi SSW 10.4 mph - N/A Rain Light Rain
1:00 PM 50.0 °F - 50.0 °F 100% 29.71 in 3.7 mi SSW 10.4 mph - N/A Rain Rain
1:30 PM 50.0 °F - 50.0 °F 100% 29.71 in 3.7 mi SW 10.4 mph - N/A Rain Rain
2:00 PM 50.0 °F - 50.0 °F 100% 29.71 in 3.7 mi WSW 8.1 mph - N/A Rain Rain
2:30 PM 50.0 °F - 50.0 °F 100% 29.71 in 3.1 mi WSW 9.2 mph - N/A Rain Rain
3:00 PM 51.8 °F - 51.8 °F 100% 29.71 in 3.1 mi West 15.0 mph - N/A Rain Rain
3:30 PM 51.8 °F - 50.0 °F 94% 29.71 in 6.2 mi West 15.0 mph - N/A   Scattered Clouds
4:00 PM 50.0 °F - 46.4 °F 87% 29.74 in 6.2 mi West 18.4 mph - N/A   Scattered Clouds
4:30 PM 50.0 °F - 44.6 °F 82% 29.74 in 6.2 mi West 19.6 mph - N/A   Scattered Clouds
5:00 PM 48.2 °F - 44.6 °F 87% 29.74 in 6.2 mi West 16.1 mph - N/A   Scattered Clouds
5:30 PM 50.0 °F - 46.4 °F 87% 29.74 in 6.2 mi West 15.0 mph - N/A   Partly Cloudy
6:00 PM 48.2 °F - 44.6 °F 87% 29.74 in 6.2 mi West 15.0 mph - N/A   Partly Cloudy
6:30 PM 46.4 °F 40.7 °F 44.6 °F 93% 29.77 in 6.2 mi West 12.7 mph - N/A   Scattered Clouds
7:00 PM 46.4 °F 40.7 °F 42.8 °F 87% 29.80 in 6.2 mi NW 12.7 mph - N/A   Scattered Clouds
7:30 PM 44.6 °F 38.8 °F 41.0 °F 87% 29.80 in 6.2 mi NW 11.5 mph - N/A   Scattered Clouds
8:00 PM 42.8 °F 39.3 °F 39.2 °F 87% 29.83 in 6.2 mi WNW 5.8 mph - N/A   Scattered Clouds
8:30 PM 42.8 °F 38.0 °F 39.2 °F 87% 29.83 in 6.2 mi WNW 8.1 mph - N/A   Scattered Clouds
9:00 PM 42.8 °F 37.5 °F 39.2 °F 87% 29.83 in 6.2 mi WNW 9.2 mph - N/A   Scattered Clouds
9:30 PM 42.8 °F 37.0 °F 37.4 °F 81% 29.86 in 6.2 mi NW 10.4 mph - N/A   Scattered Clouds
10:00 PM 42.8 °F 38.0 °F 37.4 °F 81% 29.86 in 6.2 mi WNW 8.1 mph - N/A   Scattered Clouds
10:30 PM 37.4 °F 32.8 °F 35.6 °F 93% 29.89 in - West 5.8 mph - N/A   Clear